TimeEST,TemperatureF,Dew PointF,Humidity,Sea Level PressureIn,VisibilityMPH,Wind Direction,Wind SpeedMPH,Gust SpeedMPH,PrecipitationIn,Events,Conditions,WindDirDegrees,DateUTC
10:54 AM,48.2,46.4,93,30.23,0.2,Calm,Calm,-,N/A,Fog,Fog,0,2012-12-03 15:54:00
11:41 AM,48.2,48.2,100,30.21,0.2,Calm,Calm,-,N/A,Fog,Fog,0,2012-12-03 16:41:00
11:54 AM,48.9,48.0,97,30.22,0.2,Calm,Calm,-,0.00,Fog-Rain,Light Rain,0,2012-12-03 16:54:00
12:54 PM,48.9,48.0,97,30.21,0.2,Calm,Calm,-,0.00,Fog,Fog,0,2012-12-03 17:54:00
1:54 PM,50.0,48.9,96,30.19,0.2,Calm,Calm,-,N/A,Fog,Fog,0,2012-12-03 18:54:00
2:19 PM,51.8,50.0,94,30.18,0.8,SE,4.6,-,N/A,,Mist,130,2012-12-03 19:19:00
2:26 PM,50.0,50.0,100,30.17,1.2,Calm,Calm,-,N/A,,Overcast,0,2012-12-03 19:26:00
2:40 PM,50.0,50.0,100,30.17,0.5,Calm,Calm,-,N/A,Fog,Fog,0,2012-12-03 19:40:00
2:54 PM,50.0,50.0,100,30.19,0.2,South,4.6,-,N/A,Fog,Fog,170,2012-12-03 19:54:00
3:54 PM,51.1,50.0,96,30.19,0.2,Calm,Calm,-,N/A,Fog,Fog,0,2012-12-03 20:54:00
4:37 PM,50.0,50.0,100,30.18,0.5,Variable,3.5,-,N/A,Fog,Fog,0,2012-12-03 21:37:00
4:47 PM,50.0,48.2,94,30.19,0.2,East,3.5,-,N/A,Fog,Fog,100,2012-12-03 21:47:00
4:51 PM,50.0,48.2,94,30.19,1.0,Calm,Calm,-,N/A,,Overcast,0,2012-12-03 21:51:00
4:54 PM,50.0,50.0,100,30.19,0.5,Calm,Calm,-,N/A,Fog,Fog,0,2012-12-03 21:54:00
5:14 PM,50.0,48.2,94,30.19,1.0,Calm,Calm,-,N/A,,Mostly Cloudy,0,2012-12-03 22:14:00
5:25 PM,50.0,50.0,100,30.19,2.0,Calm,Calm,-,N/A,,Overcast,0,2012-12-03 22:25:00
5:29 PM,50.0,50.0,100,30.19,2.5,Calm,Calm,-,N/A,,Overcast,0,2012-12-03 22:29:00
5:54 PM,50.0,48.9,96,30.21,2.0,Calm,Calm,-,N/A,,Overcast,0,2012-12-03 22:54:00
6:07 PM,48.2,48.2,100,30.20,1.8,ESE,4.6,-,N/A,,Overcast,110,2012-12-03 23:07:00
6:42 PM,50.0,48.2,94,30.20,2.0,Calm,Calm,-,N/A,,Overcast,0,2012-12-03 23:42:00
6:49 PM,48.2,48.2,100,30.20,1.5,East,3.5,-,N/A,,Overcast,90,2012-12-03 23:49:00
6:54 PM,48.9,48.0,97,30.21,1.5,Calm,Calm,-,N/A,,Overcast,0,2012-12-03 23:54:00
7:18 PM,50.0,48.2,94,30.20,2.0,Calm,Calm,-,N/A,,Overcast,0,2012-12-04 00:18:00
7:54 PM,50.0,48.9,96,30.21,2.0,Calm,Calm,-,N/A,,Overcast,0,2012-12-04 00:54:00
8:54 PM,48.9,48.0,97,30.20,1.8,Calm,Calm,-,N/A,,Overcast,0,2012-12-04 01:54:00
9:06 PM,50.0,48.2,94,30.19,2.5,Calm,Calm,-,N/A,,Overcast,0,2012-12-04 02:06:00
9:37 PM,50.0,48.2,94,30.19,3.0,Calm,Calm,-,N/A,,Overcast,0,2012-12-04 02:37:00
9:46 PM,50.0,48.2,94,30.18,2.5,Calm,Calm,-,N/A,,Overcast,0,2012-12-04 02:46:00
9:54 PM,50.0,48.0,93,30.20,2.0,Calm,Calm,-,N/A,,Overcast,0,2012-12-04 02:54:00
10:27 PM,50.0,48.2,94,30.19,3.0,NE,3.5,-,N/A,,Overcast,40,2012-12-04 03:27:00
10:54 PM,51.1,48.9,92,30.20,3.0,Calm,Calm,-,N/A,,Overcast,0,2012-12-04 03:54:00
11:54 PM,51.1,48.9,92,30.19,4.0,Calm,Calm,-,N/A,,Overcast,0,2012-12-04 04:54:00